Weather History for Rutland, VT

Change the Weather History Date:

Friday, March 1, 2013

  Actual Average Record
Temperature  
Mean Temperature 32 °F -  
Max Temperature 36 °F - 64 °F (1972)
Min Temperature 28 °F - -11 °F (1993)
Degree Days  
Heating Degree Days 33    
Month to date heating degree days 33  
Since 1 July heating degree days 4909  
Cooling Degree Days 0    
Month to date cooling degree days 0  
Year to date cooling degree days 0  
Moisture  
Dew Point 26 °F    
Average Humidity 85    
Maximum Humidity 100    
Minimum Humidity 69    
Precipitation  
Precipitation 0.00 in - 0.77 in (1955)
Month to date precipitation 0.00  
Year to date precipitation 1.75  
Sea Level Pressure  
Sea Level Pressure 29.68 in    
Wind  
Wind Speed 10 mph (NNW)    
Max Wind Speed 13 mph    
Max Gust Speed 22 mph    
Visibility 10 miles    
Events      
T = Trace of Precipitation, MM = Missing Value Source: NWS Daily Summary

Daily Weather History Graph

Daily Weather History Graph

Search for Another Location

Airport:

Trip Planner

Search our weather history database for the weather conditions in past years. The results will help you decide how hot, cold, wet, or windy it might be!

Date:

Astronomy

Mar. 01, 2013 Rise Set
Actual Time 6:27 AM EST 5:40 PM EST
Civil Twilight 5:59 AM EST 6:09 PM EST
Nautical Twilight 5:26 AM EST 6:42 PM EST
Astronomical Twilight 4:52 AM EST 7:16 PM EST
Moon 10:21 PM EST (3/1) 8:03 AM EST (3/1)
Length of Visible Light 12h 10m
Length of Day
11h 13m
Waning Gibbous, 83% of the Moon is Illuminated
Mar 1
Waning Gibbous
Mar 4
Last Quarter
Mar 11
New
Mar 19
First Quarter
Mar 27
Full

Hourly Weather History & Observations

Time (EST) Temp. Windchill Dew Point Humidity Pressure Visibility Wind Dir Wind Speed Gust Speed Precip Events Conditions
4:55 AM 30.2 °F 26.7 °F 30.2 °F 100% 29.60 in 4.0 mi North 3.5 mph - N/A   Overcast
5:15 AM 30.2 °F - 28.4 °F 93% 29.61 in 4.0 mi Calm Calm - N/A   Overcast
5:35 AM 30.2 °F - 28.4 °F 93% 29.61 in 5.0 mi Calm Calm - N/A   Overcast
6:15 AM 30.2 °F 23.4 °F 28.4 °F 93% 29.62 in 10.0 mi North 6.9 mph - N/A   Overcast
6:35 AM 30.2 °F 22.6 °F 28.4 °F 93% 29.63 in 10.0 mi North 8.1 mph - N/A   Overcast
7:15 AM 30.2 °F 21.3 °F 28.4 °F 93% 29.64 in 9.0 mi NNW 10.4 mph - N/A   Overcast
7:35 AM 30.2 °F 21.3 °F 26.6 °F 86% 29.65 in 10.0 mi NNW 10.4 mph 17.3 mph N/A   Overcast
7:55 AM 30.2 °F 23.4 °F 26.6 °F 86% 29.65 in 10.0 mi NNW 6.9 mph - N/A   Overcast
9:15 AM 30.2 °F 19.8 °F 26.6 °F 86% 29.66 in 10.0 mi NNW 13.8 mph 20.7 mph N/A   Overcast
9:35 AM 30.2 °F 20.8 °F 26.6 °F 86% 29.66 in 10.0 mi NNW 11.5 mph - N/A   Overcast
10:15 AM 30.2 °F 21.9 °F 26.6 °F 86% 29.66 in 10.0 mi NNW 9.2 mph - N/A   Overcast
10:35 AM 30.2 °F 19.8 °F 26.6 °F 86% 29.67 in 10.0 mi NNW 13.8 mph 17.3 mph N/A   Overcast
11:15 AM 32.0 °F 25.6 °F 24.8 °F 75% 29.67 in 10.0 mi North 6.9 mph - N/A   Overcast
11:35 AM 33.8 °F 27.0 °F 26.6 °F 75% 29.68 in 10.0 mi North 8.1 mph - N/A   Overcast
11:55 AM 33.8 °F 26.4 °F 24.8 °F 70% 29.67 in 10.0 mi NNW 9.2 mph - N/A   Overcast
12:15 PM 35.6 °F 26.6 °F 24.8 °F 65% 29.67 in 10.0 mi NNW 13.8 mph 19.6 mph N/A   Overcast
12:35 PM 35.6 °F 27.5 °F 24.8 °F 65% 29.67 in 10.0 mi NW 11.5 mph 18.4 mph N/A   Overcast
1:15 PM 33.8 °F 24.8 °F 24.8 °F 70% 29.67 in 10.0 mi NNW 12.7 mph 16.1 mph N/A   Mostly Cloudy
1:55 PM 33.8 °F 25.3 °F 24.8 °F 70% 29.66 in 10.0 mi NNW 11.5 mph 21.9 mph N/A   Overcast
2:15 PM 33.8 °F 25.3 °F 26.6 °F 75% 29.67 in 10.0 mi NNW 11.5 mph 16.1 mph N/A   Overcast
2:35 PM 33.8 °F 27.7 °F 26.6 °F 75% 29.67 in 10.0 mi NNW 6.9 mph - N/A   Overcast
2:55 PM 33.8 °F 24.8 °F 26.6 °F 75% 29.67 in 10.0 mi North 12.7 mph 18.4 mph N/A   Overcast
3:15 PM 33.8 °F 26.4 °F 26.6 °F 75% 29.67 in 10.0 mi North 9.2 mph 19.6 mph N/A   Mostly Cloudy
3:35 PM 33.8 °F 25.8 °F 26.6 °F 75% 29.68 in 10.0 mi NNW 10.4 mph - N/A   Overcast
4:15 PM 33.8 °F 27.0 °F 26.6 °F 75% 29.68 in 10.0 mi NNW 8.1 mph 17.3 mph N/A   Overcast
4:35 PM 32.0 °F 24.2 °F 26.6 °F 80% 29.69 in 10.0 mi NW 9.2 mph - N/A   Overcast
4:55 PM 32.0 °F 23.6 °F 26.6 °F 80% 29.69 in 10.0 mi NNW 10.4 mph - N/A   Overcast
5:15 PM 32.0 °F 23.0 °F 26.6 °F 80% 29.70 in 10.0 mi NNW 11.5 mph 16.1 mph N/A   Overcast
5:35 PM 30.2 °F 23.4 °F 24.8 °F 80% 29.71 in 10.0 mi NNW 6.9 mph - N/A   Overcast
5:55 PM 32.0 °F 23.6 °F 24.8 °F 75% 29.71 in 10.0 mi NNW 10.4 mph 16.1 mph N/A   Overcast
6:15 PM 30.2 °F 22.6 °F 23.0 °F 75% 29.72 in 10.0 mi NNW 8.1 mph 16.1 mph N/A   Overcast
6:35 PM 30.2 °F 23.4 °F 23.0 °F 75% 29.72 in 10.0 mi NNW 6.9 mph - N/A   Overcast
6:55 PM 30.2 °F 21.3 °F 24.8 °F 80% 29.72 in 10.0 mi NNW 10.4 mph 16.1 mph N/A   Overcast
7:15 PM 30.2 °F 20.8 °F 24.8 °F 80% 29.72 in 10.0 mi NNW 11.5 mph 17.3 mph N/A   Overcast
7:55 PM 30.2 °F 20.8 °F 24.8 °F 80% 29.73 in 10.0 mi NNW 11.5 mph 17.3 mph N/A   Overcast
8:15 PM 30.2 °F 23.4 °F 24.8 °F 80% 29.73 in 10.0 mi NNW 6.9 mph - N/A   Overcast
8:35 PM 30.2 °F 21.9 °F 24.8 °F 80% 29.73 in 10.0 mi NNW 9.2 mph - N/A   Overcast
9:15 PM 30.2 °F 22.6 °F 24.8 °F 80% 29.73 in 10.0 mi NW 8.1 mph - N/A   Overcast
9:35 PM 30.2 °F 21.3 °F 24.8 °F 80% 29.73 in 10.0 mi NW 10.4 mph 16.1 mph N/A   Overcast
9:55 PM 30.2 °F 21.3 °F 24.8 °F 80% 29.73 in 10.0 mi NW 10.4 mph - N/A   Overcast
10:15 PM 30.2 °F 22.6 °F 24.8 °F 80% 29.73 in 10.0 mi NW 8.1 mph - N/A   Overcast
10:35 PM 28.4 °F 19.7 °F 24.8 °F 86% 29.73 in 10.0 mi NW 9.2 mph - N/A   Overcast
10:55 PM 30.2 °F 20.8 °F 24.8 °F 80% 29.73 in 10.0 mi NW 11.5 mph - N/A   Overcast
11:15 PM 28.4 °F 19.7 °F 24.8 °F 86% 29.72 in 10.0 mi NW 9.2 mph - N/A   Overcast
11:35 PM 30.2 °F 21.9 °F 24.8 °F 80% 29.72 in 10.0 mi NNW 9.2 mph - N/A   Overcast
11:55 PM 28.4 °F 19.1 °F 24.8 °F 86% 29.72 in 10.0 mi NNW 10.4 mph - N/A   Overcast